دليل دواء مصر
دليل دواء مصر

دليل الأدوية
125
زيادات اسعار الادوية

صيدليات لطلب الادوية

تسجيل الدخول

Alphabetical Order 00
Popularity Order
X

صيدلية الاسراء الجديدة شراء الادوية اونلاين
صيدلية الاسراء الجديدة
تاريخ انتهاء الاشتراك: 2024-08-01

صيدلية الاسراء الجديدة


لطلبات الادوية من الصيدلية يمكنكم استخدام هذه الوسائل للاتصال
👇 👇 👇


آخر اوردرات تم طلبها من الصيدلية
👇 👇 👇

ItemPriceTimeC.Phone
champix 0.5mg & 1 mg 24 f.c. tab.(starter pack)250 L.E.2024/07/19 07:01:29 am..
gonapure 150 i.u./ml i.m./s.c. vial395 L.E.2024/07/19 06:47:13 am006015198..
gonapure 150 i.u./ml i.m./s.c. vial395 L.E.2024/07/19 06:46:41 am006015198..
inhibamet 12.5/1000 mg 30 f.c. tabs.124.5 L.E.2024/07/19 05:43:00 am010025234..
gonapure 75 i.u./ml i.m./s.c. amp.247 L.E.2024/07/19 04:42:50 am012727415..
gonal-f 900 i.u. pen4290 L.E.2024/07/19 02:33:37 am010096157..
firmagon 80 mg pd. in vial subcutaneous1040 L.E.2024/07/19 02:25:28 am015560008..
liver albumin plus 20 caps80 L.E.2024/07/19 02:06:30 am011420408..
citrocid magnesium plus 12 eff. salt.26.5 L.E.2024/07/19 01:59:42 am010934017..
betafos 1 amp. 2ml21 L.E.2024/07/19 01:55:59 am012884056..
urosolvine eff. gran. 12 sachets23.5 L.E.2024/07/19 01:52:45 am010506188..
polyvital oral drops 30 ml6.5 L.E.2024/07/19 01:24:24 am015510195..
gonapure 150 i.u./ml i.m./s.c. vial395 L.E.2024/07/19 01:22:29 am011245064..
nitrong tts 5 mg / 24 hr 7 patches63 L.E.2024/07/19 01:21:42 am012118883..
gonal-f 300 i.u. pen1533 L.E.2024/07/19 12:49:55 am015083285..
locasten 1% top. solution 20 ml11 L.E.2024/07/19 12:19:45 am010073756..
locasten 1% top. solution 20 ml11 L.E.2024/07/19 12:18:27 am010073756..
pentasa xtend 2 gm 60 sachets1230 L.E.2024/07/19 12:10:57 am011545000..
choriomon 5000 i.u. i.m. vial320 L.E.2024/07/18 11:53:49 pm012733090..
midodrine 2.5mg 20 tab38 L.E.2024/07/18 11:39:46 pm012747097..
vital materna plus 30 caps.425 L.E.2024/07/18 11:08:42 pm011004054..
ferriprox 500mg 100 tabs.(net price)1700 L.E.2024/07/18 11:06:04 pm..
infatrini milk 400 gm385 L.E.2024/07/18 11:02:17 pm..
limitless power max max 30 tab.250 L.E.2024/07/18 10:43:58 pm010330225..
blemil plus 1 milk 400 gm370 L.E.2024/07/18 10:43:31 pm010212783..
pentasa 1 gm 28 supp434 L.E.2024/07/18 10:43:27 pm010194116..
limitless power max max 30 tab.250 L.E.2024/07/18 10:42:48 pm010330225..
concor 5 mg 30 f.c. tabs.72 L.E.2024/07/18 10:25:57 pm011175207..
blemil plus 1 milk 400 gm370 L.E.2024/07/18 10:25:03 pm010212783..
endoxan 1 gm i.v. vial239 L.E.2024/07/18 10:14:16 pm012717993..
ursodiol 250mg 20 caps123 L.E.2024/07/18 10:13:35 pm010033927..
logus gyn 10 vag ovules300 L.E.2024/07/18 09:32:11 pm010021017..
nassar 12*8 f.c. tab.108 L.E.2024/07/18 09:30:05 pm010067354..
nassar 12*8 f.c. tab.108 L.E.2024/07/18 09:29:34 pm010067354..
notriprox 0.77% topical cream 15 gm7 L.E.2024/07/18 09:28:07 pm011281314..
hero baby nutrasense 1 milk 400 gm349 L.E.2024/07/18 09:21:19 pm011262565..
pentasa 500mg 100 slow release tab400 L.E.2024/07/18 09:15:41 pm011158652..
pentasa 500mg 100 slow release tab575 L.E.2024/07/18 09:11:50 pm..
betacor 80mg 30 tab.57 L.E.2024/07/18 09:06:48 pm010014876..
capecitabine-accord 500mg 120 tablets1506.5 L.E.2024/07/18 09:00:10 pm012795404..
liver albumin plus 20 caps80 L.E.2024/07/18 08:54:25 pm015578114..
cyclo-progynova 21 f.c. tab. (biphasic)43.5 L.E.2024/07/18 08:27:49 pm010248873..
pentasa xtend 2 gm 60 sachets1230 L.E.2024/07/18 08:12:30 pm010065471..
endoxan 1 gm i.v. vial239 L.E.2024/07/18 08:04:09 pm010949911..
zoladex 3.6mg prefilled syringe1222 L.E.2024/07/18 07:58:36 pm..
tegasterk 50mg i.v. vial176 L.E.2024/07/18 07:13:04 pm011263258..
gonal-f 900 i.u. pen4290 L.E.2024/07/18 07:09:12 pm010700137..
liver albumin plus 20 caps80 L.E.2024/07/18 06:57:11 pm010918406..
liver albumin plus 20 caps80 L.E.2024/07/18 06:56:53 pm010918406..
midodrine 2.5mg 20 tab38 L.E.2024/07/18 06:55:55 pm010106329..
بإجمالي بقيمة 26007 جنيه

ساعد الناس لتعرف صفحتك من خلال مشاركتها من هنا
👇 👇 👇


VIEWS: 12823
ORDERS RECIEVED : 19925 orders

PHARMACY ID: 344



آخر منتجات تم اضافتها من هذه الصيدلية


تقييمات العملاء للصيدلية:


العنوان
القاهرة
٤٦ شارع ترعه الجندي خلف قسم حدائق القبه امام التوحيد والنور


الاتجاهات وكيف تصل اليها على خرائط جوجل مابس
👇 👇 👇

تاريخ تسجيل الصيدلية على الموقع
👇 👇 👇
2023-01-22 22:37:43


تبليغ عن مشكلة 🚩



جميع الحقوق محفوظة دليل دواء مصر © 2024